Wind_Speed
36 41 53 61 51 44 23 30 37 32 27 32 48 54 51 44 45 45 45 41 39 39 39 36 38 33 34 37 34 37 34 36 29 28 29 28 29 29 32 35 36 28 31 31
21 49 51 47 33 39 41 43 35 24 15 21 29 41 42 42 42 40 39 39 42 38 35 33 33 29 29 34 34 38 40 36 37 31 28 28 28 29 31 33 36 30 25 25
24 15 35 38 29 34 37 42 41 29 27 27 24 43 33 46 44 44 42 40 38 40 42 37 36 37 36 32 32 29 28 29 32 30 26 29 31 33 33 32 31 22 17 16
29 31 29 24 25 35 36 34 23 30 33 31 29 34 47 50 51 49 48 44 43 46 39 33 33 29 30 32 32 28 26 21 20 24 26 30 30 28 26 26 19 16 13 16
32 7 13 23 28 21 36 25 26 25 25 30 36 24 65 33 43 46 45 46 45 38 32 27 29 30 34 33 28 23 17 16 17 22 23 22 22 22 21 15 14 13 15 16
28 22 20 19 19 19 14 21 26 27 26 17 34 27 32 38 44 40 35 31 29 25 24 28 29 23 27 28 26 25 18 18 20 19 19 18 18 17 11 11 14 15 14 15
20 21 22 20 22 22 20 14 6 7 10 17 19 25 48 10 6 18 22 23 20 21 23 19 19 20 18 22 22 18 16 17 18 16 16 17 13 9 11 12 13 13 14 14
12 11 18 14 10 18 24 19 12 7 4 5 34 16 20 28 31 29 27 21 21 22 21 16 17 14 13 13 16 17 16 15 12 14 12 9 9 11 13 12 12 13 12 13
5 7 10 12 13 12 18 29 25 21 29 4 15 24 35 44 36 30 25 26 22 25 18 13 8 12 9 10 13 14 12 11 11 9 8 10 11 13 11 12 12 11 11 10
3 8 19 21 18 20 19 14 15 19 7 6 8 15 22 18 16 15 17 20 22 21 19 15 12 13 12 13 13 12 10 9 8 7 9 12 13 11 11 12 11 11 8 9
15 11 16 17 14 20 18 16 21 15 11 8 3 8 26 24 19 19 16 22 20 20 15 11 10 15 14 13 13 9 7 9 8 9 10 10 11 9 11 11 9 6 7 8
11 9 12 22 21 20 20 19 13 8 12 18 17 27 27 25 21 18 19 21 21 14 10 10 11 13 14 15 11 7 8 8 8 9 9 10 8 8 8 6 4 6 10 9
10 4 8 11 8 9 12 13 15 18 20 31 13 17 23 20 11 13 22 24 21 15 15 12 14 15 15 13 9 7 8 8 8 8 9 6 5 6 5 4 4 9 10 8
13 11 11 12 11 15 13 12 9 14 16 28 37 32 33 16 3 11 18 23 24 19 18 12 15 17 15 11 8 8 8 8 8 7 6 6 7 6 5 4 7 11 9 7
13 17 15 17 21 15 19 22 16 16 24 15 23 38 39 28 27 23 23 27 28 24 17 14 16 15 13 9 9 8 8 7 6 6 4 4 3 6 6 6 10 12 9 8
18 15 18 30 26 17 19 21 22 22 24 22 25 35 25 28 24 30 31 27 30 23 17 19 14 12 9 8 8 9 8 5 5 10 5 1 1 2 4 8 12 10 9 9
24 22 18 21 14 9 10 16 17 20 18 11 32 31 9 13 20 34 30 28 23 19 23 17 13 11 9 6 9 8 6 6 10 11 7 4 4 3 5 9 10 10 8 8
25 21 20 18 26 5 3 8 15 16 14 14 28 33 21 18 14 30 30 19 17 24 20 16 12 10 9 6 8 7 7 8 9 11 8 6 5 5 6 8 9 8 8 8
18 21 15 7 7 11 3 4 13 22 19 13 24 27 25 21 28 22 27 20 19 22 17 14 11 8 7 5 5 5 7 9 8 12 10 5 3 3 5 8 9 10 9 9
16 19 23 11 5 3 9 7 17 22 18 15 21 27 25 25 33 26 32 27 23 23 19 15 10 7 7 5 4 4 7 9 11 14 8 4 2 2 4 6 8 7 8 8
7 13 26 24 7 9 15 13 14 14 13 17 19 25 24 26 25 31 30 30 26 21 19 15 9 5 7 4 4 4 7 9 13 14 9 5 5 5 5 6 6 7 6 7
7 5 8 9 3 3 16 20 17 11 20 22 18 20 24 28 23 30 34 31 28 25 20 15 10 5 7 5 4 4 9 11 15 14 9 7 6 6 7 7 7 10 8 6
8 12 3 3 3 13 22 29 23 26 31 23 28 26 35 22 23 25 30 34 28 26 22 16 11 7 8 5 6 4 9 12 15 16 12 9 6 6 7 8 8 7 5 7
15 14 9 4 10 14 19 22 24 23 27 27 25 28 34 33 22 21 23 30 31 25 23 19 14 8 9 7 5 6 6 10 13 15 13 10 8 7 7 7 8 6 4 4
17 17 19 18 15 10 5 18 10 21 26 27 19 25 29 27 26 21 17 21 32 27 25 22 17 10 7 7 5 7 7 7 13 13 13 11 9 7 6 6 7 5 8 8
17 13 14 12 15 14 11 5 14 17 28 22 10 18 23 21 22 21 19 20 31 31 27 24 18 15 10 5 7 6 8 7 11 13 12 11 10 8 6 6 7 5 7 11
Wind_Direction
217 217 216 218 218 227 227 236 249 257 258 249 245 254 261 262 262 269 271 265 273 277 279 278 279 270 258 263 269 267 268 269 269 276 283 285 286 284 283 283 286 282 280 279
214 223 222 225 231 235 234 238 239 244 232 252 264 263 265 264 264 262 268 271 268 279 272 270 272 274 273 271 271 268 270 270 267 278 274 283 285 282 280 280 277 287 282 272
230 218 232 234 236 235 236 241 244 255 254 239 272 265 265 257 258 259 260 262 265 269 266 271 275 280 280 279 271 272 277 267 261 270 272 276 274 270 268 273 277 277 264 268
242 240 238 237 244 239 249 236 260 260 261 264 266 279 266 256 258 256 257 259 263 264 273 278 268 270 270 270 274 267 267 267 261 264 273 272 269 266 270 269 266 264 276 282
235 181 225 239 239 239 251 245 252 244 254 259 252 263 263 265 262 259 260 258 260 264 267 271 271 272 272 267 266 260 264 259 269 272 264 259 261 262 261 257 258 267 276 284
253 258 262 252 238 228 246 240 244 245 254 256 245 237 280 259 260 263 266 264 267 267 269 270 272 264 268 253 255 254 262 268 269 265 263 258 251 252 245 242 265 279 286 283
236 246 253 257 260 246 244 241 222 222 216 234 226 229 236 236 259 264 275 278 274 282 275 287 262 276 265 241 246 243 255 262 269 260 255 251 246 228 244 266 274 281 283 281
261 257 250 250 244 251 244 227 204 193 200 274 234 244 247 260 267 271 276 280 276 273 278 262 268 264 237 240 232 238 252 263 246 248 247 234 231 255 264 271 279 276 275 279
344 244 236 239 246 254 238 235 231 270 264 287 234 248 267 265 266 266 267 266 266 265 256 262 253 242 228 225 229 235 241 235 233 229 221 232 252 263 271 278 278 273 271 268
320 296 263 273 284 253 243 232 212 231 216 240 254 260 238 230 238 261 273 242 250 257 229 255 258 230 226 224 239 208 218 219 212 211 236 252 255 260 263 261 255 259 254 238
295 275 270 276 275 257 249 226 235 247 248 219 298 252 208 239 297 272 246 222 235 216 228 250 235 218 229 219 194 208 211 215 225 239 237 250 264 258 244 238 245 238 222 227
298 273 279 283 277 262 252 249 253 235 239 247 245 264 214 236 280 280 230 213 210 213 229 225 205 203 192 191 197 203 207 225 242 233 245 259 245 212 215 224 236 206 205 200
303 266 298 292 263 212 230 217 224 244 244 247 218 247 205 253 290 221 224 210 204 201 211 217 209 199 191 194 199 205 215 232 227 239 263 234 183 183 189 201 213 198 196 170
256 262 255 257 267 306 254 218 231 222 227 238 240 248 222 231 274 284 217 196 204 205 214 223 205 197 191 196 196 211 220 216 229 253 198 154 170 187 209 204 204 199 178 164
266 256 306 289 290 276 256 257 260 249 226 243 234 240 246 250 283 262 230 202 203 205 209 188 184 190 194 200 204 214 203 210 238 174 120 152 203 212 217 198 194 195 168 160
282 274 299 303 310 241 236 260 269 265 245 258 234 242 245 245 267 215 207 203 199 201 187 168 173 184 189 196 205 185 191 198 168 149 191 180 129 206 196 180 185 185 164 164
262 269 286 284 311 196 228 252 251 253 252 256 237 242 223 261 201 192 185 187 197 191 167 166 165 175 174 182 174 172 168 156 150 178 198 113 106 116 149 170 175 182 166 160
248 254 262 281 294 210 10 204 221 217 221 237 239 238 235 227 216 196 184 187 185 170 166 161 166 171 172 163 163 160 149 145 157 176 136 129 131 121 151 152 157 165 157 157
241 250 245 258 263 290 199 110 163 180 203 225 236 230 232 235 221 221 190 181 171 169 158 145 148 147 154 143 147 157 153 148 172 150 125 125 129 132 174 160 157 155 147 153
219 233 234 261 291 243 200 110 157 175 176 171 187 191 195 214 190 197 198 188 174 162 159 154 142 137 148 135 146 167 158 157 167 150 139 148 112 126 177 149 163 167 160 153
181 214 234 239 258 274 295 322 151 182 170 125 152 170 185 184 186 183 188 188 187 180 168 157 131 133 122 134 154 172 168 152 153 144 149 154 103 130 122 139 159 163 179 180
34 311 228 237 253 299 332 70 126 133 175 119 120 163 183 182 173 189 190 188 199 190 186 169 158 161 154 145 165 179 168 159 138 136 135 141 136 119 117 121 132 126 128 154
12 357 323 24 102 56 43 89 131 120 165 95 113 110 182 161 156 163 185 190 193 196 191 180 171 166 173 159 161 185 175 161 146 140 144 142 137 124 122 133 131 129 136 131
28 40 72 90 36 30 58 90 102 95 111 85 88 141 150 163 161 157 170 183 193 195 197 180 172 170 173 175 169 189 187 159 157 150 152 147 139 144 151 150 146 162 158 131
19 36 55 68 62 55 62 22 81 86 82 79 93 141 154 159 157 159 161 177 188 191 197 189 179 164 156 185 181 200 201 177 153 150 150 148 150 159 153 154 144 177 180 147
8 22 43 46 50 58 57 79 37 61 69 73 113 161 163 162 156 158 172 184 191 191 193 197 193 179 174 178 190 204 207 201 165 159 156 154 157 167 166 148 122 118 122 123
Height
3051 3054 3043 3040 3059 3062 3067 3069 3069 3073 3080 3086 3078 3072 3077 3083 3084 3084 3084 3085 3084 3085 3086 3086 3087 3088 3088 3089 3090 3091 3090 3091 3091 3091 3089 3088 3087 3087 3086 3086 3087 3089 3088 3088
3044 3034 3043 3053 3057 3059 3060 3061 3060 3069 3075 3077 3075 3065 3068 3072 3074 3076 3075 3075 3075 3076 3077 3078 3080 3081 3081 3083 3083 3082 3082 3082 3083 3084 3082 3081 3081 3080 3079 3078 3077 3081 3081 3081
3037 3038 3045 3048 3050 3052 3053 3056 3061 3067 3071 3068 3073 3058 3065 3060 3061 3065 3067 3066 3067 3068 3068 3071 3073 3073 3073 3073 3075 3074 3074 3074 3075 3076 3076 3077 3075 3074 3074 3075 3076 3076 3076 3076
3031 3034 3038 3041 3044 3050 3048 3056 3061 3065 3070 3064 3074 3055 3052 3049 3048 3054 3056 3059 3059 3060 3061 3063 3065 3065 3065 3066 3067 3067 3067 3066 3067 3070 3070 3070 3070 3070 3072 3072 3072 3072 3072 3072
3025 3029 3034 3037 3039 3045 3041 3053 3056 3061 3061 3064 3062 3063 3009 3040 3039 3042 3046 3049 3051 3053 3055 3056 3057 3056 3057 3058 3059 3060 3060 3061 3062 3064 3063 3063 3065 3066 3067 3068 3069 3069 3070 3068
3023 3029 3030 3031 3035 3038 3043 3046 3051 3055 3058 3053 3047 3054 3017 3028 3030 3033 3036 3040 3044 3046 3048 3048 3049 3049 3048 3050 3053 3054 3056 3057 3058 3058 3058 3059 3060 3061 3064 3065 3065 3065 3065 3064
3020 3022 3024 3027 3029 3031 3035 3040 3045 3050 3049 3028 3039 3042 3017 3020 3024 3027 3030 3034 3037 3040 3042 3042 3042 3043 3042 3045 3047 3050 3052 3053 3053 3053 3054 3055 3057 3059 3060 3061 3061 3061 3060 3060
3015 3018 3019 3021 3023 3025 3028 3034 3033 3036 3037 3030 3037 3021 3015 3017 3021 3021 3025 3027 3030 3033 3036 3037 3038 3038 3040 3041 3043 3046 3048 3049 3049 3050 3051 3052 3053 3054 3055 3057 3057 3057 3057 3056
3012 3013 3014 3016 3018 3021 3022 3023 3030 3032 3027 3031 3023 3016 3013 3013 3016 3018 3021 3022 3025 3028 3031 3033 3035 3036 3038 3040 3041 3043 3044 3045 3046 3048 3049 3050 3050 3051 3052 3052 3053 3053 3054 3053
3013 3012 3011 3012 3014 3016 3018 3023 3026 3027 3030 3030 3016 3012 3007 3008 3011 3014 3017 3018 3021 3024 3028 3030 3032 3034 3036 3037 3039 3040 3042 3044 3045 3046 3047 3047 3047 3048 3050 3050 3051 3052 3051 3050
3011 3012 3008 3008 3009 3011 3014 3015 3019 3021 3020 3017 3016 3006 3003 3005 3008 3009 3011 3015 3017 3022 3026 3028 3029 3032 3033 3035 3037 3039 3041 3042 3043 3044 3044 3044 3044 3046 3047 3048 3048 3049 3048 3048
3009 3007 3004 3001 3002 3005 3008 3010 3013 3013 3013 3010 3010 2997 3001 3004 3006 3003 3007 3011 3016 3021 3024 3027 3028 3030 3031 3034 3036 3038 3039 3040 3040 3040 3040 3041 3042 3044 3044 3045 3045 3046 3047 3047
3006 3005 3001 2995 2995 2997 3000 3003 3004 3006 3011 3004 3008 2993 2996 3001 3003 3001 3004 3009 3014 3019 3023 3025 3027 3029 3031 3033 3035 3036 3037 3037 3038 3038 3038 3038 3040 3041 3042 3043 3044 3045 3045 3046
3003 3001 3001 2997 2994 2996 2995 2997 2999 3000 3001 3000 2995 2999 2992 2998 3001 3003 3005 3008 3012 3017 3020 3023 3025 3028 3030 3032 3033 3034 3035 3035 3036 3036 3037 3037 3039 3040 3041 3042 3043 3044 3044 3045
3000 2996 2995 2991 2990 2990 2990 2990 2993 2994 2994 2995 2996 2992 2992 2996 2999 3002 3004 3006 3010 3015 3018 3021 3024 3027 3029 3030 3031 3032 3032 3034 3035 3035 3035 3036 3038 3039 3040 3041 3042 3043 3044 3045
2994 2992 2990 2984 2981 2979 2982 2985 2987 2988 2989 2990 2994 2986 2998 2996 2993 2993 2999 3003 3009 3013 3017 3020 3023 3025 3027 3029 3030 3031 3031 3033 3034 3035 3036 3036 3037 3038 3038 3040 3041 3042 3044 3045
2989 2988 2987 2981 2977 2977 2980 2977 2978 2982 2986 2989 2989 2989 2996 2996 2995 2995 2999 3004 3009 3012 3016 3019 3022 3025 3027 3028 3029 3030 3031 3032 3032 3035 3036 3037 3038 3038 3039 3040 3041 3042 3044 3045
2984 2985 2985 2980 2974 2975 2973 2971 2973 2978 2982 2985 2986 2986 2992 2993 2997 2998 3000 3004 3007 3012 3016 3019 3022 3024 3026 3028 3028 3030 3031 3032 3032 3034 3036 3038 3039 3039 3040 3041 3042 3043 3044 3046
2980 2982 2981 2978 2970 2968 2965 2967 2970 2976 2980 2979 2981 2985 2986 2991 2994 2997 2999 3005 3008 3012 3015 3019 3022 3023 3026 3027 3028 3029 3031 3031 3033 3034 3038 3038 3040 3040 3041 3042 3043 3044 3045 3046
2973 2976 2978 2974 2971 2965 2962 2963 2965 2970 2975 2976 2975 2980 2984 2987 2990 2994 2997 3005 3008 3010 3014 3018 3021 3023 3025 3026 3028 3030 3031 3031 3033 3035 3038 3039 3041 3041 3042 3042 3043 3045 3046 3047
2967 2971 2968 2972 2970 2962 2956 2958 2961 2971 2977 2971 2971 2975 2982 2983 2990 2995 2999 3003 3006 3009 3014 3017 3020 3024 3025 3026 3028 3030 3031 3031 3034 3035 3038 3040 3041 3042 3042 3043 3044 3045 3046 3048
2970 2967 2963 2967 2966 2965 2954 2949 2959 2967 2967 2970 2973 2974 2981 2981 2989 2993 2996 3000 3003 3008 3012 3017 3020 3023 3025 3027 3029 3031 3031 3032 3034 3036 3038 3040 3042 3042 3043 3044 3044 3045 3047 3048
2972 2970 2966 2965 2965 2958 2954 2954 2959 2962 2967 2965 2972 2974 2977 2984 2991 2992 2994 2999 3004 3007 3012 3017 3020 3023 3026 3027 3029 3032 3032 3033 3034 3036 3039 3041 3042 3043 3045 3045 3046 3046 3048 3048
2975 2969 2968 2968 2966 2963 2958 2961 2963 2961 2968 2962 2969 2975 2977 2981 2987 2990 2993 2999 3002 3008 3012 3016 3019 3022 3026 3027 3030 3032 3033 3034 3035 3036 3039 3041 3043 3045 3046 3046 3047 3049 3049 3050
2979 2974 2971 2969 2965 2964 2963 2966 2967 2960 2960 2956 2961 2971 2976 2980 2985 2990 2991 2996 3002 3006 3010 3014 3018 3023 3025 3028 3029 3032 3033 3035 3036 3038 3040 3041 3043 3045 3047 3047 3048 3050 3050 3051
2978 2978 2977 2975 2973 2966 2967 2973 2966 2960 2961 2962 2971 2975 2977 2980 2983 2987 2992 2998 3001 3003 3007 3012 3017 3021 3025 3027 3029 3032 3033 3035 3036 3038 3040 3043 3044 3045 3047 3049 3049 3051 3051 3051